Regional Weather Roundup
Issued by NWS Newport/Morehead, NC

Current Version | Previous Version | Graphics & Text | Print | Product List | Glossary Off
Versions: 1 2 3 4 5 6 7 8 9 10 11 12 13 14 15 16 17 18 19 20 21 22 23 24 25 26 27 28 29 30 31 32 33 34 35 36 37 38 39 40 41 42 43 44 45 46 47 48 49 50

000
ASUS42 KMHX 292310
RWRMHX
WEATHER ROUNDUP FOR EASTERN NORTH CAROLINA
NATIONAL WEATHER SERVICE NEWPORT/MOREHEAD CITY NC
700 PM EDT MON SEP 29 2014

NOTE: "FAIR" INDICATES FEW OR NO CLOUDS BELOW 12,000 FEET
WITH NO SIGNIFICANT WEATHER AND/OR OBSTRUCTIONS TO VISIBILITY

NCZ015>017-031-032-045>047-102-103-300000-
NORTH COAST

CITY           SKY/WX    TMP DP  RH WIND       PRES   REMARKS
EDENTON        CLOUDY    70  65  85 CALM      29.96S
ELIZABETH CITY CLOUDY    70  65  84 E3        29.96R
KITTY HAWK     CLOUDY    70  64  80 N3        29.94F
MANTEO         CLOUDY    69  64  81 NE7       29.95S

$$

NCZ045>047-081-094-103-104-300000-
CENTRAL COAST

CITY           SKY/WX    TMP DP  RH WIND       PRES   REMARKS
FRISCO         CLOUDY    69  66  90 VRB7      29.94S
SWANQUARTER      N/A     72 N/A N/A NW3       29.91S

$$

NCZ095-097-098-100-101-300000-
SOUTHERN COAST

CITY           SKY/WX    TMP DP  RH WIND       PRES   REMARKS
BEAUFORT       CLOUDY    72  67  84 N7        29.95R
CEDAR ISLAND     N/A     73 N/A N/A N5        29.97S
JACKSONVILLE   LGT RAIN  70  66  87 N8        29.96R
NEWPORT        NOT AVBL
PINEY ISLAND   CLOUDY    75  67  76 CALM      29.95R HAZE
WILMINGTON     LGT RAIN  69  67  93 N5        29.96S


$$

NCZ011>013-027>030-043-044-078>080-089-090>093-098-300000-
COASTAL PLAIN

CITY           SKY/WX    TMP DP  RH WIND       PRES   REMARKS
AHOSKIE        LGT RAIN  64  63  94 CALM      29.97F
CLINTON        LGT RAIN  66  64  94 CALM      29.97S
ELIZABETHTOWN  RAIN      66  65  98 CALM      29.96F
GOLDSBORO      CLOUDY    67  66  97 CALM      29.95F
GREENVILLE     DRIZZLE   68  64  88 CALM      29.99S
HAVELOCK       LGT RAIN  72  66  81 N7        29.96S
KENANSVILLE    CLOUDY    67  65  94 CALM      29.98S
KINSTON        LGT RAIN  68  66  94 CALM      29.98S
NEW BERN       LGT RAIN  72  65  78 N3        29.97R
RICHLANDS      CLOUDY    68  64  88 CALM      29.97S
ROANOKE RAPIDS NOT AVBL
ROCKY MOUNT    LGT RAIN  66  64  93 CALM      29.97F
WASHINGTON     CLOUDY    69  65  89 CALM      29.97F
WHITEVILLE     LGT RAIN  68  65  92 NE3       29.95F

$$

AMZ130-135-150-152-154-156-158-170-250-252-270-ANZ085-086-088-633-658-670-300000-
MARINE OBSERVATIONS

STATION/POSITION TIME  TEMP    WIND        PRES    WAVE   SWELL
                       AIR SEA DIR/SP/G            HT/PER HT/PER
                 (UTC) (F)     (DEG/KT/KT) (MB)    (FT/S) (FT/S)
CHESAPEAKE LIGHT 2200   71      CALM  /  1 1015.0
BUOY 44014       2300   71 72   30/  8/ 10 1013.4    2/ 7   2/ 7
DUCK             2300   71 73   30/  8/  9 1013.4
2E DUCK          2300                        N/A     2/ 8
OREGON INLET     2300   70 74   10/  7/ 10 1014.0
BUOY 44095       2300      73                N/A     3/ 8
20E OREGON INLET NOT AVBL
HATTERAS CG      2300   72 76   20/ 13/ 15 1014.2
DIAMOND BUOY     2300   74     350/ 14/ 16 1013.2    3/ 7   2/ 7
CAPE LOOKOUT     2200   73     360/  8/ 10 1013.6
BEAUFORT LAB     2300   73 75  360/  8/ 10 1013.6
30 SE NEW RIVER  2200   75 80  360/ 12/ 14 1013.4
5 SE WRIGHTSVILL 2200   69 76  320/ 10/ 12   N/A
BUOY 41002       2226   79 81  120/  6/  8 1012.8    3/ 8   3/ 8
BUOY 41004       2300   75 81   60/ 12/ 16 1012.0    3/ 8   2/ 8

$$



USA.gov is the U.S. government's official web portal to all federal, state and local government web resources and services.